カタログに戻る

FALCON HEAVY R/B

運用中MEO
NORAD 68894·ROCKET BODY·🇺🇸 United States

打ち上げ Apr 29, 2026 から Cape Canaveral Space Force Station

Loading…

次のパス (今後24時間)

TLE

最新Source: Space-Track

元期: Sep 14, 2026, 09:55 UTC

1 68894U 26096B   26257.41328549 -.00000123  00000-0  00000-0 0  9993
2 68894   2.4468 277.3187 1479141 186.9566 170.2153  1.35919176  1871

AllMySatでFALCON HEAVY R/Bをリアルタイム追跡

Download on the App Store